TimeMST,TemperatureF,Dew PointF,Humidity,Sea Level PressureIn,VisibilityMPH,Wind Direction,Wind SpeedMPH,Gust SpeedMPH,PrecipitationIn,Events,Conditions,WindDirDegrees,DateUTC
12:55 AM,10.0,-7.1,46,30.74,10.0,Calm,Calm,-,N/A,,Clear,0,2013-01-16 07:55:00
1:55 AM,5.0,-9.0,52,30.75,10.0,Calm,Calm,-,N/A,,Clear,0,2013-01-16 08:55:00
2:55 AM,-0.0,-9.0,66,30.78,10.0,Calm,Calm,-,N/A,,Clear,0,2013-01-16 09:55:00
3:55 AM,1.0,-8.0,66,30.77,10.0,Calm,Calm,-,N/A,,Clear,0,2013-01-16 10:55:00
4:55 AM,1.9,-11.0,55,30.74,10.0,Calm,Calm,-,N/A,,Clear,0,2013-01-16 11:55:00
5:55 AM,6.1,-13.0,41,30.75,8.0,Calm,Calm,-,N/A,,Clear,0,2013-01-16 12:55:00
6:55 AM,-2.0,-11.9,63,30.80,10.0,Calm,Calm,-,N/A,,Clear,0,2013-01-16 13:55:00
7:55 AM,-5.1,-11.9,72,30.83,8.0,NW,3.5,-,N/A,,Clear,310,2013-01-16 14:55:00
8:55 AM,-0.0,-11.0,60,30.86,7.0,ESE,3.5,-,N/A,,Clear,120,2013-01-16 15:55:00
9:55 AM,7.0,-6.0,55,30.86,10.0,Calm,Calm,-,N/A,,Clear,0,2013-01-16 16:55:00
10:55 AM,10.9,-2.0,56,30.79,9.0,Calm,Calm,-,N/A,,Clear,0,2013-01-16 17:55:00
11:55 AM,16.0,-2.0,45,30.81,10.0,Calm,Calm,-,N/A,,Clear,0,2013-01-16 18:55:00
12:55 PM,18.0,-0.9,44,30.73,10.0,Calm,Calm,-,N/A,,Clear,0,2013-01-16 19:55:00
1:55 PM,21.0,-0.0,40,30.72,10.0,Calm,Calm,-,N/A,,Clear,0,2013-01-16 20:55:00
2:55 PM,25.0,1.9,37,30.72,10.0,Calm,Calm,-,N/A,,Clear,0,2013-01-16 21:55:00
3:55 PM,23.0,1.0,39,30.74,10.0,Calm,Calm,-,N/A,,Clear,0,2013-01-16 22:55:00
4:55 PM,21.9,-2.9,34,30.75,10.0,Calm,Calm,-,N/A,,Clear,0,2013-01-16 23:55:00
5:55 PM,16.0,-5.1,39,30.77,10.0,Calm,Calm,-,N/A,,Clear,0,2013-01-17 00:55:00
6:55 PM,19.9,-7.1,30,30.80,10.0,Calm,Calm,-,N/A,,Clear,0,2013-01-17 01:55:00
7:55 PM,16.0,-8.0,34,30.83,9.0,Calm,Calm,-,N/A,,Clear,0,2013-01-17 02:55:00
8:55 PM,1.9,-5.1,72,30.87,8.0,NNE,3.5,-,N/A,,Clear,30,2013-01-17 03:55:00
9:55 PM,10.0,-8.0,44,30.82,10.0,Calm,Calm,-,N/A,,Clear,0,2013-01-17 04:55:00
10:55 PM,5.0,-8.0,55,30.82,10.0,Calm,Calm,-,N/A,,Clear,0,2013-01-17 05:55:00
11:55 PM,14.0,-9.0,35,30.77,8.0,Calm,Calm,-,N/A,,Clear,0,2013-01-17 06:55:00